Tracking 35051 objects as of 17-Aug-2026
HD Live streaming from Space Station
objects crossing your sky now

STARLINK-37606

Track STARLINK-37606 now!
10-day predictions
STARLINK-37606 is classified as:


NORAD ID: 69845
Int'l Code: 2026-154AC
Launch date: July 5, 2026
Source: United States (US)
Launch site: AIR FORCE EASTERN TEST RANGE (AFETR)
Your satellite tracking list
Your tracking list is empty




NASA's NSSDC Master Catalog

Two Line Element Set (TLE):
1 69845U 26154AC  26229.00384082  .00013453  00000-0  39576-3 0  9995
2 69845  53.1604 132.8441 0001072 101.3054 258.8070 15.35410670  7942
Source of the keplerian elements: AFSPC